Home   Weather   Albany   Past weeks

Flag for USA Past Weather in Albany, New York, USA — Yesterday and Last 2 Weeks

Now
52 °F

Mostly cloudy.


Feels Like: 50 °F
Forecast: 47 / 53 °F
Wind: 6 mph from North

Location: Albany County Airport

Current Time: Apr 25, 2017 at 2:45:59 pm

Latest Report: Apr 25, 2017 at 1:51 pm


Visibility: 10 mi

Pressure: 30.17 "Hg

Humidity: 83%

Dew Point: 47 °F

Location of AlbanyLocation

Past Weather in Albany — Graph

°F

Albany Temperature Yesterday

Maximum temperature yesterday: 73 °F (at 3:51 pm)
Minimum temperature yesterday: 41 °F (at 4:51 am)
Average temperature yesterday: 57 °F

High & Low Weather Summary for the Past Weeks

 TemperatureHumidityPressure
High86 °F (Apr 11, 2:51 pm)93% (Apr 12, 5:51 am)30.48 "Hg (Apr 12, 5:51 am)
Low34 °F (Apr 14, 6:51 am)18% (Apr 10, 4:51 pm)29.65 "Hg (Apr 16, 4:51 pm)
Average55 °F58%30.13 "Hg
* Reported Apr 10 12:51 pm — Apr 25 12:51 pm, Albany, Weather by CustomWeather, © 2017

Note: Actual official high and low records may vary slightly from our data, if they occured in-between our weather recording intervals... More about our weather records

Advertising

Albany Weather History for the Previous 24 Hours

Scroll right to see more
 ConditionsComfort  
Time TempWeatherWind HumidityBarometerVisibility
12:51 pm
Tue, Apr 25
50 °FLow clouds.7 mph83%30.19 "Hg10 mi
12:36 pm51 °FLow clouds.7 mph83%30.19 "Hg10 mi
11:51 am49 °FLight rain. Cloudy.7 mph86%30.21 "Hg9 mi
10:51 am47 °FLight rain. Mostly cloudy.5 mph80%30.22 "Hg10 mi
9:51 am47 °FLight rain. Mostly cloudy.5 mph69%30.22 "Hg9 mi
8:51 am47 °FLight rain. Mostly cloudy.5 mph61%30.22 "Hg10 mi
7:51 am47 °FLight rain. Mostly cloudy.No wind50%30.21 "Hg10 mi
6:51 am46 °FMostly cloudy.5 mph51%30.18 "Hg10 mi
5:51 am46 °FLight rain. Overcast.3 mph51%30.17 "Hg10 mi
4:51 am46 °FLight rain. Overcast.6 mph51%30.16 "Hg10 mi
3:51 am46 °FOvercast.6 mph54%30.15 "Hg10 mi
2:51 am46 °FOvercast.8 mph54%30.16 "Hg10 mi
1:51 am47 °FPassing clouds.6 mph54%30.17 "Hg10 mi
12:51 am48 °FPassing clouds.6 mph52%30.17 "Hg10 mi
11:51 pm
Mon, Apr 24
49 °FPassing clouds.7 mph52%30.18 "Hg10 mi
10:51 pm51 °FPassing clouds.7 mph50%30.16 "Hg10 mi
9:51 pm54 °FPassing clouds.9 mph47%30.16 "Hg10 mi
8:51 pm57 °FPassing clouds.10 mph47%30.15 "Hg10 mi
7:51 pm61 °FPassing clouds.10 mph44%30.11 "Hg10 mi
6:51 pm70 °FPartly sunny.9 mph28%30.09 "Hg10 mi
5:51 pm73 °FScattered clouds.3 mph23%30.09 "Hg10 mi
4:51 pm73 °FScattered clouds.6 mph24%30.10 "Hg10 mi
3:51 pm73 °FPassing clouds.3 mph24%30.10 "Hg10 mi
2:51 pm72 °FPassing clouds.3 mph26%30.12 "Hg10 mi
Weather by CustomWeather, © 2017

See weather overviewHow to use our weather pages